When you browse on this site, cookies collect data to enhance your experience and personalize the content and advertising you see.
Visit our Privacy Policy to learn more. By continuing to use the site, you agree to this use of cookies and data.
  • In Österreich
  • Länderverzeichnis
  • Für 7 Tage
  • Wassertemperatur
  • Satellitenkarten
  • Wetterkarte
  • News
  • Widgets
  • user-avatar
    Anmelden

    Stündliche Wetter Trujillo

    Heute, 21 Januar, Montag

    Zeit Temperatur Niederschläge Wind Luftdruck Luftfeuchtigkeit
    00:00 +12°C° 0 mm 5 m/S 618 mmHg 86%
    01:00 +12°C° 0 mm 5 m/S 618 mmHg 87%
    02:00 +12°C° 0 mm 4 m/S 618 mmHg 87%
    03:00 +11°C° 0 mm 4 m/S 617 mmHg 87%
    04:00 +11°C° 0 mm 4 m/S 618 mmHg 87%
    05:00 +11°C° 0 mm 4 m/S 618 mmHg 86%
    06:00 +11°C° 0 mm 4 m/S 618 mmHg 86%
    07:00 +12°C° 0 mm 4 m/S 619 mmHg 82%
    08:00 +12°C° 0 mm 4 m/S 619 mmHg 78%
    09:00 +13°C° 0 mm 4 m/S 620 mmHg 74%
    10:00 +14°C° 0 mm 4 m/S 620 mmHg 70%
    11:00 +15°C° 0 mm 4 m/S 620 mmHg 67%
    12:00 +17°C° 0 mm 4 m/S 620 mmHg 63%
    13:00 +17°C° 0 mm 4 m/S 619 mmHg 64%
    14:00 +15°C° 0 mm 4 m/S 619 mmHg 65%
    15:00 +16°C° 0 mm 3 m/S 618 mmHg 66%
    16:00 +14°C° 0 mm 3 m/S 618 mmHg 72%
    17:00 +12°C° 0 mm 3 m/S 617 mmHg 78%
    18:00 +11°C° 0 mm 3 m/S 617 mmHg 84%
    19:00 +11°C° 0 mm 3 m/S 617 mmHg 85%
    20:00 +11°C° 0 mm 3 m/S 618 mmHg 85%
    21:00 +11°C° 0 mm 3 m/S 618 mmHg 86%
    22:00 +11°C° 0 mm 3 m/S 618 mmHg 87%
    23:00 +10°C° 0 mm 3 m/S 618 mmHg 87%

    Morgen, 22 Januar, Dienstag

    Zeit Temperatur Niederschläge Wind Luftdruck Luftfeuchtigkeit
    00:00 +10°C° 0 mm 3 m/S 618 mmHg 88%
    01:00 +10°C° 0 mm 2 m/S 617 mmHg 88%
    02:00 +10°C° 0 mm 2 m/S 617 mmHg 89%
    03:00 +10°C° 0 mm 2 m/S 616 mmHg 89%
    04:00 +10°C° 0 mm 2 m/S 616 mmHg 90%
    05:00 +10°C° 0 mm 2 m/S 617 mmHg 90%
    06:00 +10°C° 0 mm 2 m/S 617 mmHg 90%
    07:00 +13°C° 0 mm 2 m/S 618 mmHg 84%
    08:00 +15°C° 0 mm 2 m/S 619 mmHg 77%
    09:00 +17°C° 0 mm 2 m/S 620 mmHg 70%
    10:00 +19°C° 0 mm 2 m/S 620 mmHg 62%
    11:00 +21°C° 0 mm 2 m/S 621 mmHg 54%
    12:00 +24°C° 0 mm 2 m/S 621 mmHg 45%
    13:00 +24°C° 0 mm 2 m/S 620 mmHg 45%
    14:00 +24°C° 0 mm 2 m/S 619 mmHg 45%
    15:00 +24°C° 0 mm 2 m/S 618 mmHg 45%
    16:00 +21°C° 0 mm 2 m/S 618 mmHg 54%
    17:00 +18°C° 0 mm 2 m/S 617 mmHg 62%
    18:00 +16°C° 0 mm 1 m/S 617 mmHg 70%
    19:00 +15°C° 0 mm 1 m/S 617 mmHg 74%
    20:00 +14°C° 0 mm 1 m/S 617 mmHg 79%
    21:00 +13°C° 0 mm 1 m/S 617 mmHg 83%
    22:00 +13°C° 0 mm 1 m/S 617 mmHg 85%
    23:00 +13°C° 0 mm 1 m/S 617 mmHg 87%

    übermorgen, 23 Januar, Mittwoch

    Zeit Temperatur Niederschläge Wind Luftdruck Luftfeuchtigkeit
    00:00 +12°C° 0 mm 1 m/S 616 mmHg 89%
    01:00 +12°C° 0 mm 1 m/S 616 mmHg 89%
    02:00 +12°C° 0 mm 1 m/S 615 mmHg 89%
    03:00 +11°C° 0 mm 1 m/S 615 mmHg 89%
    04:00 +11°C° 0 mm 1 m/S 615 mmHg 89%
    05:00 +11°C° 0 mm 1 m/S 615 mmHg 88%
    06:00 +10°C° 0 mm 1 m/S 615 mmHg 88%
    07:00 +14°C° 0 mm 1 m/S 617 mmHg 75%
    08:00 +18°C° 0 mm 1 m/S 618 mmHg 62%
    09:00 +21°C° 0 mm 1 m/S 620 mmHg 49%
    10:00 +23°C° 0 mm 1 m/S 620 mmHg 44%
    11:00 +25°C° 0 mm 1 m/S 621 mmHg 38%
    12:00 +27°C° 0 mm 1 m/S 621 mmHg 33%
    13:00 +27°C° 0 mm 1 m/S 620 mmHg 33%
    14:00 +27°C° 0 mm 1 m/S 619 mmHg 33%
    15:00 +27°C° 0 mm 1 m/S 619 mmHg 33%
    16:00 +25°C° 0 mm 1 m/S 618 mmHg 41%
    17:00 +22°C° 0 mm 1 m/S 617 mmHg 49%
    18:00 +17°C° 0 mm 0 m/S 616 mmHg 57%
    19:00 +18°C° 0 mm 1 m/S 616 mmHg 63%
    20:00 +16°C° 0 mm 1 m/S 616 mmHg 70%
    21:00 +15°C° 0 mm 1 m/S 617 mmHg 76%
    22:00 +14°C° 0 mm 1 m/S 616 mmHg 80%
    23:00 +14°C° 0 mm 1 m/S 616 mmHg 83%

    24 Januar, Donnerstag

    Zeit Temperatur Niederschläge Wind Luftdruck Luftfeuchtigkeit
    00:00 +13°C° 0 mm 1 m/S 616 mmHg 87%
    01:00 +13°C° 0 mm 1 m/S 616 mmHg 89%
    02:00 +13°C° 0 mm 2 m/S 616 mmHg 91%
    03:00 +14°C° 0 mm 2 m/S 616 mmHg 93%
    04:00 +14°C° 0.1 mm 2 m/S 616 mmHg 91%
    05:00 +14°C° 0.1 mm 2 m/S 616 mmHg 90%
    06:00 +13°C° 0.1 mm 3 m/S 617 mmHg 88%
    07:00 +14°C° 0 mm 3 m/S 618 mmHg 83%
    08:00 +16°C° 0 mm 3 m/S 619 mmHg 79%
    09:00 +17°C° 0 mm 4 m/S 619 mmHg 75%
    10:00 +17°C° 0.1 mm 4 m/S 619 mmHg 74%
    11:00 +17°C° 0.1 mm 4 m/S 619 mmHg 73%
    12:00 +17°C° 0.1 mm 4 m/S 618 mmHg 73%
    13:00 +18°C° 0 mm 4 m/S 618 mmHg 71%
    14:00 +18°C° 0 mm 4 m/S 617 mmHg 69%
    15:00 +18°C° 0 mm 3 m/S 617 mmHg 68%
    16:00 +17°C° 0 mm 3 m/S 617 mmHg 73%
    17:00 +16°C° 0 mm 3 m/S 617 mmHg 79%
    18:00 +14°C° 0 mm 3 m/S 616 mmHg 84%
    19:00 +14°C° 0 mm 3 m/S 617 mmHg 86%
    20:00 +13°C° 0 mm 3 m/S 617 mmHg 88%
    21:00 +13°C° 0 mm 3 m/S 618 mmHg 89%
    22:00 +13°C° 0 mm 3 m/S 618 mmHg 89%
    23:00 +13°C° 0 mm 3 m/S 617 mmHg 90%

    25 Januar, Freitag

    Zeit Temperatur Niederschläge Wind Luftdruck Luftfeuchtigkeit
    00:00 +13°C° 0 mm 3 m/S 617 mmHg 90%
    01:00 +13°C° 0 mm 3 m/S 617 mmHg 90%
    02:00 +13°C° 0 mm 3 m/S 617 mmHg 89%
    03:00 +13°C° 0 mm 3 m/S 617 mmHg 89%
    04:00 +13°C° 0 mm 3 m/S 617 mmHg 89%
    05:00 +14°C° 0 mm 2 m/S 617 mmHg 90%
    06:00 +14°C° 0 mm 2 m/S 617 mmHg 90%
    07:00 +14°C° 0 mm 3 m/S 618 mmHg 85%
    08:00 +16°C° 0 mm 3 m/S 619 mmHg 80%
    09:00 +17°C° 0 mm 3 m/S 620 mmHg 75%
    10:00 +18°C° 0 mm 3 m/S 620 mmHg 72%
    11:00 +19°C° 0 mm 3 m/S 620 mmHg 69%
    12:00 +19°C° 0 mm 4 m/S 620 mmHg 66%
    13:00 +19°C° 0.1 mm 4 m/S 619 mmHg 68%
    14:00 +18°C° 0.1 mm 4 m/S 619 mmHg 71%
    15:00 +18°C° 0.1 mm 4 m/S 618 mmHg 73%
    16:00 +15°C° 0.2 mm 4 m/S 618 mmHg 77%
    17:00 +14°C° 0.2 mm 4 m/S 618 mmHg 81%
    18:00 +13°C° 0.2 mm 4 m/S 618 mmHg 85%
    19:00 +13°C° 0.1 mm 4 m/S 618 mmHg 85%
    20:00 +13°C° 0.1 mm 4 m/S 619 mmHg 85%
    21:00 +13°C° 0.1 mm 5 m/S 619 mmHg 84%
    22:00 +12°C° 0.1 mm 5 m/S 619 mmHg 84%
    23:00 +12°C° 0.1 mm 5 m/S 619 mmHg 84%

    26 Januar, Samstag

    Zeit Temperatur Niederschläge Wind Luftdruck Luftfeuchtigkeit
    00:00 +12°C° 0.1 mm 5 m/S 619 mmHg 83%
    01:00 +12°C° 0.1 mm 5 m/S 618 mmHg 83%
    02:00 +12°C° 0.1 mm 5 m/S 618 mmHg 83%
    03:00 +12°C° 0.1 mm 5 m/S 618 mmHg 83%
    04:00 +10°C° 0 mm 5 m/S 618 mmHg 83%
    05:00 +10°C° 0 mm 5 m/S 618 mmHg 83%
    06:00 +10°C° 0 mm 5 m/S 618 mmHg 83%
    07:00 +12°C° 0 mm 5 m/S 619 mmHg 79%
    08:00 +12°C° 0 mm 5 m/S 619 mmHg 76%
    09:00 +13°C° 0 mm 5 m/S 620 mmHg 73%
    10:00 +15°C° 0 mm 5 m/S 620 mmHg 67%
    11:00 +16°C° 0 mm 5 m/S 620 mmHg 61%
    12:00 +19°C° 0 mm 5 m/S 621 mmHg 56%
    13:00 +17°C° 0 mm 5 m/S 620 mmHg 58%
    14:00 +17°C° 0 mm 5 m/S 619 mmHg 59%
    15:00 +17°C° 0 mm 4 m/S 618 mmHg 61%
    16:00 +15°C° 0 mm 4 m/S 618 mmHg 68%
    17:00 +13°C° 0 mm 4 m/S 618 mmHg 75%
    18:00 +11°C° 0 mm 4 m/S 617 mmHg 81%
    19:00 +11°C° 0 mm 4 m/S 618 mmHg 83%
    20:00 +11°C° 0 mm 4 m/S 618 mmHg 84%
    21:00 +11°C° 0 mm 4 m/S 618 mmHg 86%
    22:00 +10°C° 0 mm 3 m/S 618 mmHg 86%
    23:00 +10°C° 0 mm 3 m/S 618 mmHg 86%
    Mehr zeigen